Regional Weather Roundup
Issued by NWS

Home | Current Version | Previous Version | Graphics & Text | Print | Product List | Glossary Off
Versions: 1 2 3 4 5 6 7 8 9 10 11 12 13 14 15 16 17 18 19 20 21 22 23 24 25 26 27 28 29 30 31 32 33 34 35 36 37 38 39 40 41 42 43 44 45 46 47 48 49 50

000
ASUS43 KTOP 200008
RWRKS

WEATHER ROUNDUP FOR KANSAS
NATIONAL WEATHER SERVICE GOODLAND KS
600 PM CST SUN FEB 19 2017

NOTE:  "FAIR" INDICATES FEW OR NO CLOUDS BELOW 12,000 FEET WITH NO
SIGNIFICANT WEATHER AND/OR OBSTRUCTIONS TO VISIBILITY.

KSZ001>006-013>018-027>032-041>047-200100-
NORTHWEST KANSAS

CITY           SKY/WX    TMP DP  RH WIND       PRES   REMARKS
GOODLAND       CLOUDY    64  36  35 S18G30    29.67R
6HR MIN TEMP:  64; 6HR MAX TEMP:  68;

HAYS           MOCLDY    60  52  74 SE17      29.75R
HILL CITY      PTCLDY    69  49  48 S15G29    29.71R
6HR MIN TEMP:  63; 6HR MAX TEMP:  77;

RUSSELL        PTCLDY    60  52  74 S22G30    29.76R
6HR MIN TEMP:  60; 6HR MAX TEMP:  70;

$$

KSZ061>065-074>080-084>089-200100-
SOUTHWEST KANSAS

CITY           SKY/WX    TMP DP  RH WIND       PRES   REMARKS
DODGE CITY     CLEAR     62  53  72 SE17      29.75R
6HR MIN TEMP:  61; 6HR MAX TEMP:  73;

ELKHART          N/A     60  29  30 S20         N/A
GARDEN CITY    MOCLDY    70  45  40 S15       29.72R
6HR MIN TEMP:  66; 6HR MAX TEMP:  74;

GREAT BEND     CLOUDY    61  54  77 SE20      29.78S
LIBERAL        PTCLDY    66  37  34 SW17      29.77R
PRATT          PTCLDY    58  52  80 SE10      29.80F
6HR MIN TEMP:  49; 6HR MAX TEMP:  60;

$$

KSZ066>073-081>083-090>101-200100-
SOUTHEAST KANSAS

CITY           SKY/WX    TMP DP  RH WIND       PRES   REMARKS
CHANUTE        MOCLDY    69  55  60 S13       29.90R
6HR MIN TEMP:  61; 6HR MAX TEMP:  73;

COFFEYVILLE    CLOUDY    69  57  65 S10       29.91R
6HR MIN TEMP:  63; 6HR MAX TEMP:  73;

HUTCHINSON     PTCLDY    60  54  80 SE12      29.83S
6HR MIN TEMP:  52; 6HR MAX TEMP:  63;

MEDICINE LODGE   N/A     62  54  74 SE9       29.79F
NEWTON         PTCLDY    60  54  80 S7        29.86R
PARSONS        PTCLDY    69  56  62 S12       29.91R
6HR MIN TEMP:  62; 6HR MAX TEMP:  72;

WICHITA INTL   CLOUDY    63  55  75 SE3       29.83S
6HR MIN TEMP:  54; 6HR MAX TEMP:  64;

WICHITA JABRA  PTCLDY    62  55  77 S6        29.84S
6HR MIN TEMP:  54; 6HR MAX TEMP:  64;

WICHITA MCCONL MOCLDY    63  55  73 SE3       29.83S
WINFIELD       PTCLDY    66  57  72 S17       29.85R
6HR MIN TEMP:  57; 6HR MAX TEMP:  71;

$$

KSZ007>012-019>026-033>040-048>060-102>105-200100-
NORTHEAST KANSAS

CITY           SKY/WX    TMP DP  RH WIND       PRES   REMARKS
CONCORDIA      CLEAR     60  52  74 S18       29.80R
6HR MIN TEMP:  58; 6HR MAX TEMP:  63;

EMPORIA        CLOUDY    62  54  74 S12       29.86S
6HR MIN TEMP:  55; 6HR MAX TEMP:  65;

LAWRENCE       PTCLDY    65  55  70 CALM      29.87S
6HR MIN TEMP:  65; 6HR MAX TEMP:  74;

MANHATTAN      CLOUDY    62  53  72 SE10      29.84R
6HR MIN TEMP:  59; 6HR MAX TEMP:  65;

MARYSVILLE     PTCLDY    59  52  77 S12       29.82S
OLATHE IND     CLEAR     67  53  61 S7        29.89R
6HR MIN TEMP:  65; 6HR MAX TEMP:  75;

OLATHE EXE     CLEAR     69  55  60 S8        29.88S
6HR MIN TEMP:  65; 6HR MAX TEMP:  74;

SALINA         MOCLDY    63  54  72 S20G29    29.85R
6HR MIN TEMP:  57; 6HR MAX TEMP:  68;

TOPEKA BILLARD PTCLDY    64  55  72 CALM      29.86F
6HR MIN TEMP:  63; 6HR MAX TEMP:  69;

TOPEKA FORBES  MOCLDY    61  54  77 SE3       29.86F
6HR MIN TEMP:  61; 6HR MAX TEMP:  68;

$$



USA.gov is the U.S. government's official web portal to all federal, state and local government web resources and services.